Regional Weather Roundup
Issued by NWS

Home | Current Version | Previous Version | Text Only | Print | Product List | Glossary Off
Versions: 1 2 3 4 5 6 7 8 9 10 11 12 13 14 15 16 17 18 19 20 21 22 23 24 25 26 27 28 29 30 31 32 33 34 35 36 37 38 39 40 41 42 43 44 45 46 47 48 49 50

585
ASUS44 KJAN 301403
RWRMS

MISSISSIPPI HOURLY WEATHER ROUNDUP
NATIONAL WEATHER SERVICE JACKSON MS
900 AM CDT MON MAR 30 2015

NOTE: "FAIR: INDICATES FEW OR NO CLOUDS BELOW 12,000 FEET WITH NO
SIGNIFICANT WEATHER AND/OR OBSTRUCTIONS TO VISIBILITY.

MSZ001>002-007>008-010>013-018>021-025>028-034>036-301500-
NORTHWEST MISSISSIPPI

CITY           SKY/WX    TMP DP  RH WIND       PRES   REMARKS
CLARKSDALE     FAIR      57  50  77 N7        30.24R
CLEVELAND      FAIR      61  53  73 NE10      30.23R
GREENWOOD      SUNNY     65  49  56 NE14      30.21R
GREENVILLE     SUNNY     64  48  56 NE16      30.22R
OLIVE BRANCH   SUNNY     54  52  94 N6        30.24R
OXFORD         FAIR      55  50  82 NE5       30.24R
TUNICA         SUNNY     55  48  76 N8        30.25R
$$

MSZ003>006-009-014>017-022>024-029>033-037>039-301500-
NORTHEAST MISSISSIPPI

CITY           SKY/WX    TMP DP  RH WIND       PRES   REMARKS
COLUMBUS AFB   PTSUNNY   61  55  81 N9        30.20R
CORINTH        FAIR      57  48  72 N6        30.22R
GOLDN TRIANGLE PTSUNNY   63  55  77 N12       30.20R
STARKVILLE     PTSUNNY   61  55  82 N7        30.21R
TUPELO         SUNNY     59  49  69 NE13      30.22R
$$

MSZ040-058-301500-
CENTRAL MISSISSIPPI

CITY           SKY/WX    TMP DP  RH WIND       PRES   REMARKS
JACKSON INTL   LGT RAIN  65  61  87 SW7       30.22S
JACKSON HAWKNS CLOUDY    64  60  87 W8        30.23R
MERIDIAN KEY   LGT RAIN  63  61  93 SW6       30.21S
MERIDIAN NAS   LGT RAIN  64  59  85 W7        30.17R
RAYMOND        CLOUDY    64  59  82 CALM      30.22S HAZE
VICKSBURG      CLOUDY    65  60  84 SW3       30.22S
$$

MSZ059>079-301500-
SOUTH MISSISSIPPI

CITY           SKY/WX    TMP DP  RH WIND       PRES   REMARKS
BROOKHAVEN       N/A     66  64  94 W7        30.26R
HATTIESBURG    SUNNY     68  62  81 W5        30.25R
MCCOMB         MOSUNNY   66  62  87 W6        30.25R
NATCHEZ        SUNNY     64  63  94 SW6       30.25R
PINE BELT      MOSUNNY   66  61  82 W6        30.25R
$$

MSZ080>082-301500-
COASTAL MISSISSIPPI

CITY           SKY/WX    TMP DP  RH WIND       PRES   REMARKS
BAY ST LOUIS   MOSUNNY   68  61  77 SW5       30.26R
BILOXI         SUNNY     72  64  74 VRB2      30.25R
PASCAGOULA     MOSUNNY   72  63  73 W5        30.25R
GULFPORT       SUNNY     71  62  73 VRB5      30.25R
$$



USA.gov is the U.S. government's official web portal to all federal, state and local government web resources and services.